Regional Weather Roundup
Issued by NWS

Home | Current Version | Previous Version | Graphics & Text | Print | Product List | Glossary On
Versions: 1 2 3 4 5 6 7 8 9 10 11 12 13 14 15 16 17 18 19 20 21 22 23 24 25 26 27 28 29 30 31 32 33 34 35 36 37 38 39 40 41 42 43 44 45 46 47 48 49 50
000
ASUS45 KCYS 221310
RWRWY

WYOMING REGIONAL WEATHER ROUNDUP
NATIONAL WEATHER SERVICE CHEYENNE WY
700 AM MDT TUE JUL 22 2014

NOTE:  "FAIR" INDICATES FEW OR NO CLOUDS BELOW 12,000 FEET
WITH NO SIGNIFICANT WEATHER AND/OR OBSTRUCTIONS TO VISIBILITY.

WYZ001-221400-
YELLOWSTONE NATIONAL PARK

CITY           SKY/WX    TMP DP  RH WIND       PRES   REMARKS
LK YELLOWSTONE   N/A     41  40  96 NW3       30.46R
W YELLOWSTONE  NOT AVBL

$$
WYZ002>013-054>058-071-098>099-221400-
NORTHERN WYOMING

CITY           SKY/WX    TMP DP  RH WIND       PRES   REMARKS
JACKSON        CLEAR     46  45  93 CALM      30.39R
CODY           PTSUNNY   64  45  48 CALM      30.24S
GREYBULL       LGT RAIN  63  53  70 N6        30.19R
WORLAND        MOSUNNY   59  47  64 CALM      30.20R
SHERIDAN       PTSUNNY   58  53  84 SW5       30.20R
BUFFALO        CLOUDY    69  45  41 S12       30.25R
GILLETTE       PTSUNNY   64  57  78 CALM      30.23R
HULETT         FAIR      61  55  82 MISG      30.26
NEWCASTLE      FAIR      68  54  60 MISG      30.24

$$
WYZ014>020-022>026-101>103-221400-
CENTRAL WYOMING

CITY           SKY/WX    TMP DP  RH WIND       PRES   REMARKS
BIG PINEY      PTCLDY    50  39  66 E6        30.43R
PINEDALE       MOSUNNY   46  41  81 NW5       30.44R
DUBOIS         FAIR      48  37  66 NW6       30.42R
LANDER         CLEAR     60  40  47 CALM      30.29S
RIVERTON       SUNNY     59  44  57 NW7       30.30R
CASPER         MOSUNNY   57  52  83 SW6       30.30R
DOUGLAS        MOSUNNY   65  53  65 S3        30.30R

$$
WYZ021-027>030-104>119-221400-
SOUTHERN WYOMING

CITY           SKY/WX    TMP DP  RH WIND       PRES   REMARKS
EVANSTON       CLEAR     56  36  47 NE3       30.41R
KEMMERER       MOSUNNY   48  37  66 N10       30.43S
FORT BRIDGER   FAIR      57  35  43 S5        30.43R
ROCK SPRINGS   CLEAR     61  33  35 CALM      30.39R
DIXON          FAIR      52  36  53 SE6       30.41R
RAWLINS        SUNNY     57  42  57 CALM      30.40R
SARATOGA       FAIR      54  34  47 S3        30.42R
LARAMIE        SUNNY     52  40  63 S6        30.44R
CHEYENNE       SUNNY     62  53  72 N7        30.37R
TORRINGTON     SUNNY     64  60  87 W3        30.24R
PINE BLUFFS    FAIR      63  52  67 N10       30.28S

$$


USA.gov is the U.S. government's official web portal to all federal, state and local government web resources and services.